IUS DEB, 43366

Orbit data source: Space-Track

IUS DEB, 43366 is space debris originally from a launch on Fri, 23 Jul 1999 UTC launched from the Air Force Eastern Test Range (AFETR). Debris objects in space refer to the collection of defunct objects orbiting the Earth. Examples of debris include non-operational satellites, rocket bodies, and fragments generated from explosions, collisions, or faulty payload assembly.

Loading next visibility...
IUS DEB details
Identifier
43366, 1999-040P
Orbit
Active
Last TLE update1 day ago
Origin
Flag of USGSFC (US)
ManufacturerBoeing/Kent
MissionSpacecraft
Bus & MotorUnknown
MassUnknown
Launch date (UTC)
1999-07-23 (25 years ago)
Launch vehicleUnknown
Launch site
Air Force Eastern Test Range (AFETR)
Object type
Payload
Rocket body
Debris
Shape & HBRUnknown
Radar Cross SectionSmall (<0.1 m²)

Expand to show TLE details & history

TLE from 1 day ago
0 IUS DEB
1 43366U 99040P   24360.28695553  .00001828  00000-0  90710-2 0  9990
2 43366  28.1218  45.5746 3816695  42.7789 341.3793  7.02400115230344
Epoch: 2024-12-25T06:53Z
Definitive object data (Epoch: 2024-12-25T06:53:12.957Z)
Latitude-0.00001°
Longitude-152.01229°
Altitude1,305.6 km
Speed8.316 km/s
True Right ascension03h 02m 17s
True Declination0° 00' 00"
Sunlit
Object was in full shadow at TLE epoch
Visualization TLE readout
Latitude8.96723°
Longitude-136.67611°
Altitude952.322 km
Speed8.612 km/s
Apparent Right ascension01h 39m 45s
Apparent Declination-19° 29' 36"
Sunlit
Object is in full shadow
Visualization observer readout
Local Sidereal Time09:38:43
Azimuth273.087° WNW
Elevation-34.946°
Doppler factor1
Orbital elements
Apogee altitude9,539.246 km
Perigee altitude745.277 km
Semi-major axis11,520.398 km
Eccentricity0.3816695
Inclination28.1218°
RAAN45.5746°
Arg. of periapsis42.7789°
True anomaly317.26533°
Mean anomaly341.3793°
Eccentric anomaly330.66622°
Mean motion1.75526 °/min
BSTAR0.009071
Orbital period205.1 mins
Loading maneuver chart data...
Loading historical data...
Loading historical data...
Loading historical data...
Loading historical data...
Loading historical data...
Loading historical data...
Loading historical data...

IUS DEB Visibility forecast

Observer location: undefined°, undefined

Span
Click to sort rows by Start time (UTC) header in descending order
Start Az.
Max El. time (UTC)
Max El. Az.
Max El.
End time (UTC)
End Az.
23 mins2024-12-26 10:33:34.033Z241.51° WSW2024-12-26 10:39:34.033Z175.175° S33.899°2024-12-26 10:56:34.033Z114.303° SE
52 mins2024-12-26 14:10:34.033Z248.977° W2024-12-26 14:23:34.033Z197.766° SSW28.462°2024-12-26 15:02:34.033Z148.365° SSE
11 mins2024-12-26 18:19:34.033Z218.816° SW2024-12-26 18:24:34.033Z213.971° SW10.24°2024-12-26 18:30:34.033Z208.621° SW
4 mins2024-12-27 06:56:34.033Z170.997° S2024-12-27 06:57:34.033Z156.722° SSE14.358°2024-12-27 07:00:34.033Z122.109° SE
|